STARLINK-35368, 65830

Orbit data source: Space-Track

STARLINK-35368, 65830 is a payload satellite owned by SpaceX/Seattle (US) in LEO that was launched on Mon, 29 Sep 2025 UTC via an FALCON 9 launch vehicle from the Air Force Western Test Range (AFWTR). Payload-class satellites include a variety of spacecraft equipped with specific instruments for various scientific and technological missions. These include communications satellites like Starlink; space stations such as the ISS; scientific satellites like the Hubble; Earth observation satellites from companies like Planet Labs, Umbra, and HawkEye 360; GPS; miniature CubeSats for education and research; and military/defense satellites.

Loading next visibility...
Identifier
65830, 2025-221H
Orbit
LEO
Country
Flag of USUS
Related business
Manufacturer
SpaceX/Seattle
Mission
Operational Commercial Communications
Bus & Motor
STARLINK V2MO, Unknown motor
Mass
575 kg wet, ~530 kg dry
Launch date (UTC)
2025-09-29 (2 months ago)
Launch vehicle
FALCON 9
Launch site
Air Force Western Test Range (AFWTR)
Object type
Payload
Rocket body
Debris
Shape & HBR
Box + 2 Pan, 17.7 m
Radar Cross Section
36.964 m²

Expand to show TLE details & history
Last TLE update: 11 hours ago

TLE from 11 hours ago
0 STARLINK-35368
1 65830U 25221H   25340.85376451  .00044206  00000-0  14962-2 0  9997
2 65830  53.1581 159.9956 0000766  45.1390 314.9673 15.30190932 11820
Epoch: 2025-12-06T20:29Z
TLE epoch observation values (Epoch: 2025-12-06T20:29:25.253Z)
Latitude
-0.00002°
Longitude
136.76483°
Altitude
475.771 km
Speed
7.629 km/s
True Right ascension
10h 39m 58s
True Declination
0° 00' 00"
Sunlit
Object was in daylight at epoch
Visualization orbit readout
Latitude
Unknown
Longitude
Unknown
Altitude
Unknown
Speed
Unknown
Apparent Right ascension
Unknown
Apparent Declination
Unknown
Sunlit
N/A
Visualization observer readout
Local Sidereal Time
05:38:58
Azimuth
Unknown
Elevation
Unknown
Doppler factor
Unknown
Orbital elements
Apogee altitude
476.024 km
Perigee altitude
474.974 km
Semi-major axis
6,853.636 km
Eccentricity
0.00008
Inclination
53.1581°
RAAN
159.9956°
Arg. of periapsis
45.139°
True anomaly
314.96109°
Mean anomaly
314.9673°
Eccentric anomaly
314.96419°
Mean motion
3.82527 °/min
Orbital period
94.11 mins
BSTAR
0.0014962
Loading maneuver chart data...
Computing Atmospheric mass density...
Loading historical data...
Loading historical data...
Loading historical data...
Loading historical data...
Loading historical data...
Loading historical data...
Loading historical data...

Documentation

Showing up to 5 results
|